Wind_Speed
2 5 5 1 1 3 2 1 5 4 4 2 2 4 2 1 3 4 3 2 4 6 8 7 6 5 6 6 5 5 4 4 2 1 1 2 2 1 1 3 3 3 4
4 3 3 0 1 3 5 1 1 4 2 2 4 6 4 3 5 6 1 5 6 3 6 8 7 6 6 7 6 5 4 4 3 3 4 3 3 3 3 3 4 4 4
4 2 2 3 2 5 4 3 2 4 8 5 3 3 2 2 6 3 6 2 5 6 4 5 8 8 5 5 4 4 4 4 4 3 3 3 3 4 5 4 4 5 5
11 5 2 1 1 2 1 3 3 1 4 2 1 1 2 4 5 5 4 2 0 1 4 4 3 5 5 6 5 5 5 5 4 4 5 3 4 3 4 5 5 6 6
9 6 6 7 2 1 2 1 1 3 0 2 5 3 3 4 2 4 2 2 4 3 4 5 5 4 2 1 2 4 5 7 7 7 7 6 8 7 6 6 7 6 7
11 7 3 3 2 1 3 6 3 1 1 1 1 2 5 4 3 3 3 6 3 2 1 6 2 5 4 4 1 1 2 3 6 7 8 8 9 9 10 10 11 10 10
11 10 7 5 3 4 4 2 1 2 3 2 6 7 3 4 3 3 5 6 4 3 2 3 4 2 5 1 3 3 2 2 2 4 4 4 5 6 7 8 9 10 11
13 12 10 10 8 4 7 3 5 4 1 6 5 7 8 6 4 4 4 4 4 4 4 3 3 1 3 3 5 2 1 1 1 2 2 2 3 4 5 6 7 8 10
14 15 12 10 9 9 9 2 3 6 2 5 8 3 0 7 9 5 3 5 4 3 2 5 4 4 4 0 4 5 2 3 3 5 5 6 5 4 3 3 4 5 7
16 15 13 11 11 8 8 5 5 6 5 5 6 5 4 1 5 7 6 6 3 4 4 3 2 4 5 6 6 1 5 6 5 5 5 6 7 6 6 6 6 6 6
17 16 15 14 13 12 12 10 9 7 6 7 5 5 4 3 2 0 9 9 5 7 4 3 2 4 2 4 5 2 3 3 3 1 3 6 7 6 6 6 6 7 8
16 21 18 19 16 13 12 9 9 8 10 8 7 6 4 4 4 4 5 7 9 8 7 6 7 7 7 6 8 10 7 4 4 3 4 6 7 7 6 7 8 9 9
20 21 22 23 17 17 15 14 14 11 9 10 12 7 7 6 5 5 5 3 2 4 3 8 9 10 9 9 10 13 12 11 9 9 10 10 10 10 10 10 11 13 14
20 19 24 22 22 18 19 18 14 12 12 12 12 13 9 8 7 7 6 4 4 5 7 7 7 9 9 9 12 13 13 15 14 14 13 13 11 10 11 12 14 14 14
20 22 22 21 23 23 21 20 17 18 16 15 14 13 15 10 10 9 7 6 6 6 7 10 5 10 9 9 10 10 11 14 13 12 13 13 12 12 13 15 17 18 18
25 21 26 24 23 25 25 24 19 18 20 17 15 17 16 12 13 11 9 9 8 8 8 3 5 8 8 7 12 11 9 13 14 12 13 13 13 13 14 15 17 18 19
32 30 26 27 26 27 27 27 25 21 24 22 20 20 21 19 15 13 13 12 11 10 11 10 9 10 16 16 11 15 12 12 11 15 14 13 13 14 15 16 18 18 16
40 38 34 34 29 27 29 30 29 25 26 23 23 24 25 22 23 20 16 16 14 14 14 14 12 12 15 14 14 17 14 12 12 14 14 16 19 18 19 18 19 17 17
44 42 40 40 38 33 33 34 33 33 30 30 28 27 27 27 26 22 24 18 17 19 16 15 14 13 14 13 13 12 14 13 14 17 20 17 15 17 20 20 17 17 16
44 44 43 42 42 40 38 38 39 38 37 35 34 32 30 30 28 26 25 24 22 18 16 15 14 14 15 15 14 12 13 13 12 11 15 12 21 20 22 19 16 16 14
47 44 44 45 45 44 41 44 42 43 41 41 37 37 33 32 30 28 26 26 22 23 17 16 15 16 16 17 16 14 11 12 15 16 15 15 14 16 19 17 17 14 17
48 48 49 48 48 46 43 43 43 43 43 42 41 39 39 33 33 33 30 26 26 24 22 17 18 20 19 17 16 16 15 14 15 13 13 12 14 17 16 14 15 18 15
51 52 51 50 50 51 50 47 45 44 43 45 44 43 41 34 36 36 34 31 32 31 27 27 25 23 19 16 18 18 19 18 16 13 13 12 12 13 12 16 19 21 23
51 52 52 52 52 54 52 51 50 48 49 47 45 45 43 42 39 39 36 36 36 37 32 30 32 26 24 26 23 20 20 21 19 18 14 14 10 12 13 12 18 21 22
47 50 50 51 54 56 55 53 52 53 54 53 50 44 43 43 44 45 40 37 35 34 34 31 34 30 28 25 23 15 14 17 13 15 16 14 10 9 11 14 15 18 18
45 41 44 48 52 54 56 57 55 55 56 57 56 51 47 47 45 46 46 42 40 37 31 32 34 31 34 28 25 24 17 16 15 14 12 12 11 11 12 13 10 14 16
Wind_Direction
149 229 119 113 332 300 121 26 17 48 50 64 74 49 96 102 133 183 76 61 113 172 180 187 187 186 185 182 168 181 181 189 208 229 222 232 248 294 304 324 330 339 341
208 116 198 5 294 255 336 92 54 21 90 43 92 61 72 84 283 130 162 67 61 114 177 193 188 194 195 198 196 182 177 178 197 232 238 255 271 278 299 308 313 308 317
217 210 169 212 135 297 315 13 276 179 88 131 83 63 108 98 108 133 160 115 23 58 69 170 190 205 203 203 206 199 206 201 216 235 273 271 255 279 289 298 296 305 312
185 225 208 198 129 276 3 192 352 71 128 125 73 63 171 115 124 148 130 107 61 230 89 43 156 185 210 213 218 231 238 242 242 254 254 270 287 275 292 282 281 296 304
210 206 258 195 51 82 78 25 147 312 53 189 181 139 146 104 137 119 66 202 197 173 166 53 36 71 70 171 233 244 245 251 258 262 261 258 257 255 262 279 281 276 277
216 224 244 267 245 258 274 232 147 193 148 231 320 184 154 146 123 108 117 148 108 151 210 17 331 3 47 11 317 278 266 258 267 270 271 268 265 266 269 267 260 262 272
221 226 218 248 218 254 227 199 269 49 188 265 149 132 135 139 142 124 95 101 71 104 76 340 242 134 11 53 53 14 350 316 279 280 287 287 287 285 274 280 284 282 277
217 222 227 225 234 245 283 212 191 175 217 173 195 160 147 155 162 131 108 104 94 94 75 78 87 3 185 325 336 330 332 347 11 354 355 355 338 325 319 307 301 298 290
225 238 232 204 227 197 241 242 187 208 187 191 193 282 259 171 161 155 156 135 134 119 88 91 109 139 108 57 54 53 78 96 91 80 59 39 24 8 351 318 295 289 293
221 226 212 217 211 190 236 219 214 198 194 189 208 230 252 58 68 175 176 192 171 202 158 142 113 135 142 158 178 185 86 99 88 64 43 26 13 6 359 352 342 332 322
220 216 224 224 214 193 224 244 196 196 216 188 201 200 208 216 282 239 202 195 199 212 195 177 195 219 150 209 242 224 120 136 109 62 20 4 2 359 4 8 6 356 348
229 216 219 228 218 211 212 238 218 219 187 215 196 202 191 176 193 205 220 198 221 207 218 220 224 226 236 236 221 243 279 262 260 288 308 325 339 338 332 334 336 334 333
221 229 222 223 221 221 212 218 240 218 221 212 202 199 206 213 216 220 235 235 225 202 229 235 237 239 242 243 252 258 262 257 263 276 291 306 316 321 325 321 319 317 314
222 222 236 230 220 222 217 221 224 223 230 224 219 196 203 220 223 225 223 239 212 213 222 222 230 233 238 240 242 249 254 258 262 269 278 280 290 303 303 304 303 301 303
216 219 224 235 218 216 220 218 218 237 216 235 231 222 208 213 224 226 234 236 242 274 250 214 233 235 225 241 244 245 235 248 263 267 270 274 280 278 287 295 299 296 291
218 219 224 220 220 218 218 223 223 221 232 227 220 240 231 219 229 229 227 234 236 245 263 257 239 226 227 231 256 250 236 244 257 263 266 264 258 267 284 297 300 296 293
219 217 224 230 226 220 220 225 218 220 241 233 224 224 244 223 219 234 233 231 234 237 243 250 250 248 249 250 241 255 235 250 265 272 277 272 267 273 288 298 297 295 288
233 231 227 233 237 229 223 226 228 219 228 231 231 230 242 241 233 220 226 233 232 234 238 244 238 245 261 261 247 242 246 248 262 275 269 275 281 283 292 297 293 290 288
237 237 238 234 239 237 230 231 232 231 223 233 237 238 242 242 242 235 232 230 239 231 239 242 243 249 250 263 255 263 253 265 261 265 272 282 293 290 294 295 297 288 283
235 237 235 238 240 239 237 237 239 236 235 232 238 240 242 243 243 242 232 237 223 227 239 239 251 251 250 251 249 256 268 261 257 263 265 281 292 301 306 300 314 314 301
235 236 239 238 240 240 235 238 238 239 239 236 234 241 241 242 249 245 240 237 238 233 232 242 250 252 250 250 245 255 261 261 266 261 263 276 294 296 301 306 306 294 295
234 233 235 239 239 238 235 234 239 238 241 241 236 235 240 242 244 248 246 239 245 242 244 236 243 248 251 249 253 257 266 269 276 269 259 275 288 295 312 288 295 308 301
233 235 236 238 240 241 240 238 238 239 240 241 240 237 236 233 243 243 244 241 242 244 245 254 247 236 242 250 249 253 255 262 264 258 282 274 276 285 292 298 299 295 294
234 236 239 240 241 243 243 242 241 240 241 242 243 241 235 236 236 242 243 241 239 240 243 247 250 248 247 239 245 258 260 261 266 260 253 260 280 282 286 284 288 293 298
230 235 236 238 241 243 244 243 241 240 241 243 244 239 237 236 235 242 242 244 246 241 242 243 248 242 245 242 247 238 243 251 263 260 253 251 267 278 279 282 291 295 303
234 232 235 239 242 243 242 241 240 239 238 241 243 240 238 237 239 239 242 242 239 244 237 239 247 232 238 239 240 241 238 246 249 265 254 226 259 276 286 286 277 296 306
Height
1584 1584 1586 1586 1586 1586 1585 1584 1584 1585 1585 1585 1586 1584 1585 1585 1586 1583 1583 1585 1585 1586 1587 1588 1588 1589 1590 1591 1592 1593 1594 1595 1596 1596 1597 1598 1598 1598 1598 1598 1598 1598 1598
1584 1585 1586 1586 1587 1586 1584 1586 1586 1585 1584 1585 1586 1585 1586 1586 1585 1586 1583 1585 1586 1586 1586 1587 1588 1589 1589 1590 1591 1592 1593 1594 1595 1596 1597 1597 1598 1598 1598 1598 1598 1598 1597
1584 1584 1586 1586 1586 1586 1587 1586 1585 1585 1584 1585 1586 1586 1586 1586 1586 1586 1586 1584 1585 1586 1587 1587 1587 1588 1589 1591 1592 1593 1593 1594 1595 1595 1596 1596 1597 1597 1597 1597 1597 1597 1597
1583 1584 1585 1586 1583 1586 1587 1586 1587 1587 1586 1587 1588 1587 1586 1587 1587 1588 1588 1586 1587 1586 1586 1587 1588 1589 1590 1591 1593 1593 1594 1594 1594 1595 1595 1596 1596 1596 1596 1595 1595 1596 1596
1582 1583 1582 1582 1585 1586 1586 1587 1586 1586 1587 1587 1586 1587 1587 1588 1587 1588 1588 1588 1589 1588 1589 1589 1591 1591 1591 1592 1592 1592 1593 1593 1594 1594 1594 1594 1594 1595 1595 1595 1594 1594 1594
1580 1581 1584 1584 1585 1585 1585 1585 1585 1586 1586 1586 1586 1586 1587 1588 1589 1589 1588 1589 1591 1593 1590 1591 1591 1592 1593 1593 1592 1591 1592 1592 1593 1593 1594 1594 1594 1594 1593 1593 1593 1592 1592
1578 1580 1582 1582 1583 1584 1584 1584 1585 1585 1586 1586 1586 1587 1588 1589 1589 1590 1590 1591 1592 1590 1593 1594 1592 1592 1592 1593 1592 1593 1593 1592 1592 1593 1593 1593 1593 1593 1593 1593 1593 1592 1591
1576 1578 1579 1580 1582 1581 1582 1583 1584 1584 1586 1585 1585 1586 1587 1589 1589 1590 1592 1592 1593 1593 1593 1594 1595 1594 1593 1593 1594 1594 1594 1594 1594 1594 1593 1592 1592 1592 1592 1592 1592 1592 1591
1575 1576 1577 1579 1580 1581 1581 1582 1583 1584 1586 1586 1585 1586 1585 1585 1588 1591 1592 1592 1594 1594 1595 1596 1596 1595 1595 1594 1594 1594 1592 1593 1593 1593 1593 1593 1592 1591 1591 1591 1590 1589 1589
1572 1574 1575 1576 1578 1580 1580 1581 1584 1584 1584 1586 1586 1586 1586 1586 1588 1590 1590 1591 1593 1593 1594 1595 1594 1595 1594 1594 1593 1592 1594 1593 1594 1594 1593 1592 1591 1590 1589 1589 1588 1588 1587
1568 1572 1573 1574 1575 1577 1580 1580 1581 1582 1584 1585 1586 1586 1587 1589 1589 1589 1589 1590 1590 1591 1593 1594 1597 1594 1594 1596 1593 1592 1592 1592 1593 1592 1593 1593 1591 1590 1589 1587 1586 1586 1586
1565 1567 1570 1571 1572 1576 1578 1578 1579 1580 1581 1584 1585 1586 1587 1588 1588 1588 1587 1587 1588 1590 1591 1592 1592 1593 1593 1593 1594 1592 1593 1593 1592 1593 1591 1591 1591 1590 1590 1590 1590 1589 1586
1561 1561 1564 1566 1569 1571 1575 1576 1576 1578 1578 1580 1581 1584 1586 1587 1586 1586 1585 1586 1587 1588 1590 1590 1590 1590 1592 1592 1592 1590 1590 1590 1590 1591 1592 1593 1592 1593 1594 1592 1590 1589 1588
1556 1559 1559 1561 1564 1568 1569 1573 1575 1575 1576 1576 1577 1580 1584 1584 1584 1584 1585 1586 1586 1586 1586 1587 1587 1588 1588 1589 1589 1588 1588 1588 1589 1589 1590 1589 1589 1591 1589 1586 1585 1583 1583
1551 1554 1555 1556 1560 1563 1566 1568 1570 1571 1574 1573 1575 1576 1578 1581 1581 1582 1584 1585 1585 1584 1582 1582 1585 1585 1585 1585 1585 1585 1586 1586 1587 1586 1587 1588 1589 1586 1584 1584 1583 1580 1578
1545 1549 1550 1553 1554 1557 1560 1563 1566 1568 1568 1570 1572 1573 1574 1577 1579 1580 1581 1582 1583 1583 1582 1582 1582 1583 1582 1583 1581 1582 1583 1583 1583 1585 1583 1583 1584 1583 1584 1583 1581 1580 1580
1539 1542 1544 1546 1548 1551 1554 1557 1560 1564 1563 1565 1568 1570 1570 1572 1574 1577 1577 1579 1580 1581 1580 1579 1580 1579 1579 1580 1579 1578 1580 1581 1582 1579 1580 1580 1579 1579 1580 1580 1578 1577 1576
1531 1534 1538 1540 1543 1546 1548 1550 1553 1557 1558 1559 1561 1563 1564 1566 1569 1571 1574 1575 1576 1576 1577 1577 1578 1577 1576 1575 1574 1575 1576 1578 1579 1577 1577 1577 1577 1577 1577 1575 1572 1571 1571
1523 1527 1530 1533 1535 1539 1541 1544 1546 1549 1552 1553 1554 1555 1557 1559 1561 1564 1566 1570 1570 1570 1572 1572 1574 1573 1574 1572 1572 1573 1574 1577 1577 1576 1574 1573 1571 1570 1570 1570 1569 1568 1565
1514 1517 1521 1524 1527 1530 1533 1535 1537 1539 1543 1545 1546 1549 1550 1551 1554 1557 1560 1561 1564 1567 1567 1570 1571 1571 1570 1570 1571 1572 1572 1571 1570 1571 1569 1570 1569 1568 1564 1564 1563 1561 1562
1504 1510 1513 1516 1518 1521 1524 1526 1528 1531 1533 1536 1539 1541 1544 1546 1548 1551 1553 1556 1558 1561 1564 1566 1567 1566 1566 1567 1567 1567 1566 1567 1567 1565 1568 1567 1567 1565 1561 1558 1557 1558 1556
1494 1498 1501 1505 1509 1512 1516 1520 1522 1525 1527 1530 1532 1535 1537 1539 1541 1543 1546 1550 1552 1554 1557 1560 1560 1561 1561 1562 1563 1565 1564 1563 1563 1561 1561 1564 1561 1558 1558 1557 1553 1552 1553
1484 1487 1491 1496 1499 1502 1506 1511 1515 1518 1519 1520 1523 1525 1528 1531 1532 1535 1538 1542 1543 1544 1548 1550 1551 1554 1556 1556 1557 1558 1558 1558 1558 1559 1556 1556 1556 1556 1557 1553 1550 1549 1548
1474 1478 1482 1486 1489 1490 1495 1501 1506 1509 1510 1512 1513 1514 1518 1522 1522 1524 1527 1530 1532 1534 1538 1542 1542 1544 1546 1549 1550 1551 1553 1553 1554 1552 1552 1551 1551 1552 1551 1550 1547 1546 1545
1464 1465 1469 1474 1476 1478 1482 1487 1493 1496 1497 1499 1502 1506 1509 1511 1513 1514 1518 1522 1523 1526 1528 1531 1534 1534 1537 1539 1541 1544 1546 1548 1548 1549 1547 1548 1549 1547 1546 1545 1545 1542 1540
1453 1458 1459 1461 1463 1465 1468 1471 1477 1482 1485 1487 1489 1493 1495 1498 1502 1505 1507 1511 1512 1515 1520 1521 1522 1524 1529 1527 1531 1536 1541 1542 1544 1546 1544 1544 1545 1544 1541 1542 1542 1540 1538